This is the latest recevied weather packets stored in our database for station/object N8ESC. If no packets are shown the sender has not sent any weather packets the latest 1 day(s).
| Time | Temp. | Humidity | Pressure | Rain* | Wind** | Luminosity | Snow |
|---|---|---|---|---|---|---|---|
| 1777986473 | 6.67° C | 53% | 1002.8 hPa | 0 mm | 2.68 m/s, 279° | 156 W/m² | - |
| 1777986172 | 6.67° C | 55% | 1002.7 hPa | 0 mm | 1.79 m/s, 345° | 177 W/m² | - |
| 1777985868 | 6.67° C | 55% | 1002.8 hPa | 0 mm | 1.79 m/s, 268° | 166 W/m² | - |
| 1777985566 | 6.11° C | 56% | 1002.7 hPa | 0 mm | 1.79 m/s, 255° | 219 W/m² | - |
| 1777985262 | 6.11° C | 56% | 1002.6 hPa | 0 mm | 2.24 m/s, 253° | 112 W/m² | - |
| 1777984959 | 6.11° C | 58% | 1002.8 hPa | 0 mm | 0.89 m/s, 258° | 107 W/m² | - |
| 1777984655 | 5.56° C | 58% | 1002.8 hPa | 0 mm | 2.24 m/s, 251° | 105 W/m² | - |
| 1777984352 | 5.56° C | 59% | 1002.8 hPa | 0 mm | 1.34 m/s, 294° | 98 W/m² | - |
| 1777984048 | 5.56° C | 60% | 1002.6 hPa | 0 mm | 0.45 m/s, 336° | 93 W/m² | - |
| 1777983745 | 5.56° C | 60% | 1002.7 hPa | 0 mm | 0.89 m/s, 114° | 80 W/m² | - |
| 1777983442 | 5.56° C | 60% | 1002.9 hPa | 0 mm | 0.45 m/s, 227° | 73 W/m² | - |
| 1777983139 | 5.56° C | 61% | 1002.8 hPa | 0 mm | 0.89 m/s, 314° | 67 W/m² | - |
| 1777982835 | 5.56° C | 61% | 1002.8 hPa | 0 mm | 0.45 m/s, 352° | 53 W/m² | - |
| 1777982531 | 5.56° C | 62% | 1002.5 hPa | 0 mm | 0.89 m/s, 267° | 53 W/m² | - |
| 1777982224 | 5.56° C | 62% | 1002.6 hPa | 0 mm | 0.45 m/s, 6° | 47 W/m² | - |
| 1777981923 | 5° C | 62% | 1002.5 hPa | 0 mm | 1.34 m/s, 264° | 37 W/m² | - |
| 1777981619 | 5° C | 62% | 1002.5 hPa | 0 mm | 0.89 m/s, 273° | 32 W/m² | - |
| 1777981315 | 5° C | 63% | 1002.5 hPa | 0 mm | 0.45 m/s, 341° | 28 W/m² | - |
| 1777981012 | 5° C | 63% | 1002.3 hPa | 0 mm | 0.45 m/s, 345° | 27 W/m² | - |
| 1777980709 | 5° C | 63% | 1002.4 hPa | 0 mm | 0.45 m/s, 30° | 25 W/m² | - |
| 1777980406 | 5° C | 62% | 1002.3 hPa | 0 mm | 0.89 m/s, 297° | 22 W/m² | - |
| 1777980104 | 5° C | 62% | 1002.5 hPa | 0 mm | 1.34 m/s, 275° | 19 W/m² | - |
| 1777979803 | 5° C | 62% | 1002.1 hPa | 0 mm | 0.89 m/s, 351° | 18 W/m² | - |
| 1777979499 | 5° C | 62% | 1002.2 hPa | 0 mm | 1.34 m/s, 22° | 17 W/m² | - |
| 1777979195 | 5° C | 62% | 1002.3 hPa | 0 mm | 1.34 m/s, 313° | 16 W/m² | - |
* Rain latest hour (hover to see other rain measurements)
** Current wind speed in m/s (hover to see current wind gust speed)